Regional Weather Roundup
Issued by NWS

Home | Current Version | Previous Version | Graphics & Text | Print | Product List | Glossary On
Versions: 1 2 3 4 5 6 7 8 9 10 11 12 13 14 15 16 17 18 19 20 21 22 23 24 25 26 27 28 29 30 31 32 33 34 35 36 37 38 39 40 41 42 43 44 45 46 47 48 49 50
415
ASUS43 KLOT 181912
RWRIL

ILLINOIS REGIONAL WEATHER ROUNDUP
NATIONAL WEATHER SERVICE CHICAGO/ROMEOVILLE IL
100 PM CST WED JAN 18 2017

NOTE: "FAIR" INDICATES FEW OR NO CLOUDS BELOW 12,000 FEET WITH NO
SIGNIFICANT WEATHER AND/OR OBSTRUCTIONS TO VISIBILITY.

* THESE STATIONS ARE NOT UNDER NWS QUALITY CONTROL. THEY ALSO MAY NOT
  REPORT WEATHER SUCH AS PRECIPITATION OR FOG.

ILZ001-002-007-009-015-016-024-182000-
NORTHWEST ILLINOIS

CITY           SKY/WX    TMP DP  RH WIND       PRES   REMARKS
MOLINE         CLOUDY    37  32  82 SW12      30.07F WCI  29
STERLING*      CLOUDY    39  33  79 SW7       30.07F WCI  34
SAVANNA*       MOSUNNY   37  32  81 S7        30.06F WCI  32
$$

ILZ003-004-008-010-011-017-018-182000-
NORTH CENTRAL ILLINOIS

CITY           SKY/WX    TMP DP  RH WIND       PRES   REMARKS
ROCKFORD       CLOUDY    34  30  85 SW12      30.08F WCI  25
FREEPORT*      CLOUDY    33  31  94 SW16      30.08F FOG     WCI  22
ROCHELLE*      CLOUDY    34  32  93 SW16      30.08F WCI  23
DE KALB*       CLOUDY    33  32  94 SW15      30.07F WCI  23
$$

ILZ005-006-012>014-019>023-182000-
NORTHEAST ILLINOIS

CITY           SKY/WX    TMP DP  RH WIND       PRES   REMARKS
CHICAGO-OHARE  CLOUDY    34  32  92 SW12      30.07F FOG     WCI  25
CHICAGO-MIDWAY CLOUDY    33  32  96 SW14G21   30.08F FOG     WCI  23
AURORA         CLOUDY    35  31  85 SW15      30.09F WCI  25
LANSING*       CLOUDY    35  35 100 SW10      30.11F FOG     WCI  27
JOLIET*        CLOUDY    38  33  85 SW10G21   30.11F WCI  30
WAUKEGAN       CLOUDY    35  33  92 SW20G25   30.03F WCI  24
DUPAGE AIRPORT CLOUDY    35  31  85 SW16      30.07F WCI  25
KANKAKEE*      CLOUDY    38  34  84 SW16      30.13F WCI  29
WHEELING       CLOUDY    35  32  88 SW12      30.07F WCI  27
MORRIS*        CLOUDY    36  32  85 SW10      30.10F WCI  29
ROMEOVILLE*    CLOUDY    36  35  97 SW14      30.09F WCI  27
NORTHERLY ISL    N/A     35  33  92 W5          N/A  WCI  31
$$

LMZ740>746-182000-
SOUTHERN LAKE MICHIGAN

STATION/POSITION SKY/WX   TEMP    WIND        PRES    VSBY  WAVE
                          AIR SEA DIR/SP/G                  HT/PER
                          (F)     (DEG/KT/KT) (MB)    (MI)  (FT/S)
HARRISON CRIB              35     210/ 21/ 23   N/A
BURNHAM HARBOR             35     190/  5/ 14   N/A
CALUMET HARBOR             35     210/ 10/ 17 1018.2F
BURNS HARBOR               34     210/ 16/ 20 1019.6F
$$

ILZ025>027-034>036-040-047-049-050-058-095>099-182000-
WEST-CENTRAL ILLINOIS

CITY           SKY/WX    TMP DP  RH WIND       PRES   REMARKS
QUINCY         CLOUDY    42  36  79 S10       30.11F
GALESBURG*     CLOUDY    37  34  89 S12       30.10F WCI  29
MACOMB*        PTSUNNY   40  36  84 SW7       30.13F
JACKSONVILLE*  MOSUNNY   41  34  74 S7        30.14F
PITTSFIELD*    MOSUNNY   42  35  75 S6        30.13F
$$

ILZ028>032-037-038-041>044-048-051>054-059>061-182000-
CENTRAL ILLINOIS

CITY           SKY/WX    TMP DP  RH WIND       PRES   REMARKS
PONTIAC        CLOUDY    38  36  93 SW14      30.13F WCI  29
BLOOMINGTON    CLOUDY    36  32  85 SW9       30.12F WCI  29
DECATUR        PTSUNNY   40  34  79 SW9       30.14F
PEORIA         CLOUDY    37  33  85 SW7       30.12F WCI  32
LACON*         CLOUDY    37  32  81 S10       30.10F WCI  30
LINCOLN*       CLOUDY    40  34  78 SW3       30.14F
SPRINGFIELD    MOSUNNY   43  34  70 SW10      30.15F
TAYLORVILLE    CLOUDY    40  34  81 SW7       30.15F
$$

ILZ033-039-045-046-055>057-062-063-182000-
EAST-CENTRAL ILLINOIS

CITY           SKY/WX    TMP DP  RH WIND       PRES   REMARKS
CHAMPAIGN      CLOUDY    39  33  79 SW9       30.14F WCI  33
RANTOUL*       CLOUDY    42  37  83 SW6       30.14F
MATTOON        CLOUDY    40  34  79 S6        30.14F
PARIS*         CLOUDY    39  35  88 S5        30.17F
$$

ILZ079-100>102-182000-
SOUTHWEST ILLINOIS

CITY           SKY/WX    TMP DP  RH WIND       PRES   REMARKS
ALTON          MOSUNNY   45  34  65 S8        30.16F
BELLEVILLE     SUNNY     47  36  65 S9        30.16F
CAHOKIA*       SUNNY     47  33  58 S7        30.16F
SPARTA*        CLOUDY    42  34  73 SW3       30.19F
$$

ILZ064>066-069>071-074>076-080>082-084>086-088>090-092>094-182000-
SOUTH-CENTRAL ILLINOIS

CITY           SKY/WX    TMP DP  RH WIND       PRES   REMARKS
CARBONDALE     CLOUDY    44  37  76 CALM      30.19F
CAIRO*         CLOUDY    42  38  85 NE3       30.20F
EFFINGHAM*     CLOUDY    40  35  83 S3        30.19F
MT. VERNON     MOSUNNY   47  37  68 S7        30.20S
CENTRALIA*     SUNNY     46  37  72 SW8       30.18S
SALEM*         SUNNY     46  35  65 S7        30.18S
METROPOLIS*    CLOUDY    43  38  80 CALM      30.21F
$$

ILZ067-068-072-073-078-083-087-091-182000-
SOUTHEAST ILLINOIS

CITY           SKY/WX    TMP DP  RH WIND       PRES   REMARKS
LAWRENCEVILLE  CLOUDY    40  36  86 CALM      30.19F
FLORA*         CLOUDY    42  37  80 SE5       30.20S
FAIRFIELD*     MOSUNNY   41  35  79 CALM      30.19S
HARRISBURG*    CLOUDY    43  37  79 SE3       30.22S
ROBINSON*      CLOUDY    38  35  86 S6        30.20F WCI  34
CARMI*         CLOUDY    42  35  77 CALM      30.20F
$$

ABBREVIATIONS USED IN REMARKS
   TC - TEMPERATURE IN CELSIUS
  WCI - WIND CHILL INDEX
   HX - HEAT INDEX
  VSB - VISIBILITY
$$





USA.gov is the U.S. government's official web portal to all federal, state and local government web resources and services.